Regional Weather Roundup
Issued by NWS

Home | Current Version | Previous Version | Text Only | Print | Product List | Glossary On
Versions: 1 2 3 4 5 6 7 8 9 10 11 12 13 14 15 16 17 18 19 20 21 22 23 24 25 26 27 28 29 30 31 32 33 34 35 36 37 38 39 40 41 42 43 44 45 46 47 48 49 50
000
ASUS43 KMKX 292211
RWRWI

WISCONSIN REGIONAL WEATHER ROUNDUP
NATIONAL WEATHER SERVICE MILWAUKEE/SULLIVAN WI
500 PM CDT TUE JUL 29 2014

NOTE: "FAIR" INDICATES FEW OR NO CLOUDS BELOW 12,000 FEET WITH NO
SIGNIFICANT WEATHER AND/OR OBSTRUCTIONS TO VISIBILITY.

WIZ001-002-006>008-014>016-023>028-292300-
NORTHWEST WISCONSIN

CITY           SKY/WX    TMP DP  RH WIND       PRES   REMARKS
SUPERIOR ARPT  CLOUDY    67  56  66 NE9G18    30.04R
ASHLAND        PTSUNNY   63  60  90 W5        30.04R
HAYWARD        PTSUNNY   77  53  43 VRB3      30.02S
SIREN          MOSUNNY   75  54  47 NW13      30.04R
RICE LAKE      PTSUNNY   71  57  61 W6        30.05F
LADYSMITH      PTSUNNY   74  57  54 NW9       30.04S
EAU CLAIRE     LGT RAIN  69  60  73 NW12G20   30.05R
MENOMONIE      LGT RAIN  71  59  65 N9        30.05S
NEW RICHMOND   PTSUNNY   79  53  40 W16       30.04F
OSCEOLA        SUNNY     78  55  45 NW13      30.06S
$$

WIZ003>005-009-010-017-018-292300-
NORTH CENTRAL WISCONSIN

CITY           SKY/WX    TMP DP  RH WIND       PRES   REMARKS
WOODRUFF       MOSUNNY   72  56  57 W12       30.02R
RHINELANDER    TSTM      61  56  83 W13       30.03R
EAGLE RIVER    PTSUNNY   65  58  76 CALM      30.00S
LAND O LAKES   MOSUNNY   69  53  56 N6        30.01S
PHILLIPS       CLOUDY    59  55  87 N13G22    30.04R
TOMAHAWK       LGT RAIN  60  57  89 W7        30.04R
MEDFORD        CLOUDY    64  57  79 NW7       30.04S
MERRILL        CLOUDY    62  58  87 NW5       30.03R THUNDER
$$

WIZ029-030-035-036-043>047-292300-
CENTRAL WISCONSIN

CITY           SKY/WX    TMP DP  RH WIND       PRES   REMARKS
WAUSAU         LGT RAIN  66  60  81 N10       30.01R
MOSINEE        NOT AVBL
MARSHFIELD     TSTM      61  55  81 NE5G17    30.04R
STEVENS POINT  MOSUNNY   73  54  51 W8        30.00R
WAUPACA        MOSUNNY   79  51  37 NW8       29.97S
WAUTOMA        MOSUNNY   80  52  37 NW10      29.99S HX  80
WISC RAPIDS    PTSUNNY   75  54  47 NW9       30.01S
CAMP DOUGLAS   TSTM      63  61  94 W7        30.04S
$$

WIZ011>013-019>022-031-037>040-048>050-292300-
NORTHEAST WISCONSIN

CITY           SKY/WX    TMP DP  RH WIND       PRES   REMARKS
ANTIGO         CLOUDY    61  57  87 NW5       30.01R
STURGEON BAY   PTSUNNY   70  55  60 CALM      29.96F
GREEN BAY      LGT RAIN  62  60  93 NE6       29.98R FOG
MANITOWOC      LGT RAIN  63  59  87 MISG      29.98S
APPLETON       PTSUNNY   77  50  38 W13       29.96F
CLINTONVILLE   PTSUNNY   77  50  38 NE20G29   29.98R
OSHKOSH        MOSUNNY   78  55  44 W13G20    29.96F
$$

WIZ032>034-041-042-053>061-292300-
SOUTHWEST WISCONSIN

CITY           SKY/WX    TMP DP  RH WIND       PRES   REMARKS
LA CROSSE      PTSUNNY   72  55  55 E10       30.03F
SPARTA         PTSUNNY   67  53  60 SW6       30.07R
VIROQUA        FAIR      75  55  49 NW12      30.05S
BOSCOBEL       MOSUNNY   81  55  40 W8G17     30.02F HX  81
PRAIRIE DU CHI MOSUNNY   78  50  37 W9        30.03F
PLATTEVILLE    FAIR      79  53  40 W9G17     30.05S
$$

WIZ056-057-062-063-064-067-068-292300-
SOUTH CENTRAL WISCONSIN

CITY           SKY/WX    TMP DP  RH WIND       PRES   REMARKS
BARABOO/DELLS  PTSUNNY   76  51  41 W10       30.02R
LONE ROCK      MOSUNNY   80  58  46 W7        30.02F HX  80
WATERTOWN      MOSUNNY   77  54  45 W9        29.99S
MADISON        MOSUNNY   79  54  41 NW7       30.00F
MIDDLETON      FAIR      79  51  36 NW8       30.02S
MONROE         MOSUNNY   77  55  47 W10G16    30.02F
JANESVILLE     PTSUNNY   77  52  41 NW9       30.00F
$$

WIZ051-052-058>065-066-070>072-292300-
SOUTHEAST WISCONSIN

CITY           SKY/WX    TMP DP  RH WIND       PRES   REMARKS
MILWAUKEE      PTSUNNY   77  52  41 NW9       29.98F
WAUKESHA       MOSUNNY   75  52  43 W13       30.00F
MILWAUKEE/TIMM PTSUNNY   75  50  41 W12G17    29.99F
RACINE         MOSUNNY   73  59  61 SE9       30.00F
BURLINGTON     MOSUNNY   75  54  48 NW10      29.99F
KENOSHA        SUNNY     77  55  46 NW7       29.99F
FOND DU LAC    SUNNY     78  53  41 W12       29.97F
SHEBOYGAN      MOSUNNY   76  54  46 NW12      29.97F
WEST BEND      MOSUNNY   73  50  43 NW9G16    29.98F
JUNEAU         MOSUNNY   76  46  33 W7        30.00S
$$

LSZ147-162-292300-
LAKE SUPERIOR

STATION/POSITION TIME  TEMP    WIND        PRES    WAVE
                       AIR SEA DIR/SP/G            HT/PER
                 (UTC) (F)     (DEG/KT/KT) (MB)    (FT/S)
W MID LAKE BUOY  2150   52 44   60/  4/  6 1016.2R   1
PORT WING        2100   61      50/ 67     1016.6R
SAXON HARBOR     2100           CALM  /  6 1016.3
$$

LMZ867-665-643>646-292300-
LAKE MICHIGAN

STATION/POSITION TIME  TEMP    WIND        PRES    WAVE
                       AIR SEA DIR/SP/G            HT/PER
                 (UTC) (F)     (DEG/KT/KT) (MB)    (FT/S)
N MID LAKE BUOY  2150   59 58  200/  4/  4 1013.9F   0
NORTHPORT PIER   2100   67     320/  2/  5 1014.2F
SISTER BAY       2110   72        CALM       N/A
ALGOMA LAKESHORE 2036          200/  9/ 10   N/A
KEWAUNEE LAKESHO 2100   59     140/  7/ 11 1015.9R
SHEBOYGAN LAKESH 2200   67      40/ 11/ 13 1015.6R
PORT WASHINGTON  2140   79     290/  7/ 12 1015.2F
ATWATER BUOY     2200   65     150/ 10     1016.1F
MILWAUKEE LAKESH 2100   64     150/ 12/ 14   N/A
S MID LAKE BUOY  2150   63 62  180/  8/  8 1015.8F   1
KENOSHA   LAKESH 2200   65     170/ 11/ 11 1015.2F
$$

TC  - TEMPERATURE IN CELSIUS
VSB - VISIBILITY IN STATUTE MILES
WCI - WIND CHILL INDEX
HX  - HEAT INDEX




USA.gov is the U.S. government's official web portal to all federal, state and local government web resources and services.